NOAA 16 DEB

Satellite information

Favourite Embed

Satellite Type and Status

DEBRISIN ORBIT

Key statistics

Satellite NOAA 16 DEB at a glance.

Uptime

8995

Days in orbit

Revolutions

≈ 14.3

Per day

Orbit

SSO

Sun Synchronous Orbit

Inclination

98.9

Latest

Satellite identification and parameters

Extended collection of information and parameters for NOAA 16 DEB.

Object identification

Identified? True

Debris? True

Object name: NOAA 16 DEB

International designator: 2000-055DB

Object number (NORAD): 41198

Object ID (CCSDS): 41198

Country: UNITED STATES OF AMERICA (US)

Current information (Y/N): Y

RCS size: SMALL

Orbital parameters

Period: 100.359 minutes

Inclination: 98.9139 deg

SMA: 7153.712 km

Apoapsis: 792.02 km

Periapsis: 759.134 km

RAAN: 221.286 deg

Eccentricy: 0.0022985

Argument of periapsis: 264.5686 deg

Mean anomaly: 95.2876 deg

Mean motion: 14.3484705 rev/day

Mean motion (dot): 0.00011107 rev/day2

B* drag term: 0.0039106 1/REarth

Two-line elements (TLE)

Creation date: May 8, 2025, 3:01 a.m.

Reference frame: TEME

Reference center: EARTH

Epoch: May 7, 2025, 4:57 a.m. UTC

TLE line 0: 0 NOAA 16 DEB

TLE line 1: 1 41198U 00055DB 25127.20683523 .00011107 00000-0 39106-2 0 9990

TLE line 2: 2 41198 98.9139 221.2860 0022985 264.5686 95.2876 14.34847050483354

Live tracking on map

Real-time ground track for satellite NOAA 16 DEB.

In-orbit conjunctions

A list of the most updated potential collisions computed for object NOAA 16 DEB.

Target Orbit TCA Probability of collision Miss distance Type
COSMOS 836 LEO 2025-04-06 16:51:28 0.000113944 377.0 (m) PAYLOAD
COSMOS 836 LEO 2025-04-06 15:10:59 0.0001132363 115.0 (m) PAYLOAD
COSMOS 836 LEO 2025-04-06 11:50:01 0.0001718849 707.0 (m) PAYLOAD
COSMOS 836 LEO 2025-04-06 10:09:32 0.0001085088 723.0 (m) PAYLOAD
CZ-6A DEB LEO 2024-12-17 21:51:58 0.0001441723 794.0 (m) DEBRIS

Associated space launch

The NOAA K, L and M POES satellites begin the fifth generation of improved environmental monitoring in support of NOAA missions. The instrument payload has significant improvements and additions/deletions. The instrument changes have effected the spacecraft subsystems and data formats.

NOAA 16 DEB was lifted into orbit during the mission ‘Titan II SLV | NOAA 16’, on board a Titan II SLV space rocket.

The launch took place on Sept. 21, 2000, 10:22 a.m. from Space Launch Complex 4W.

For more information about the launch, click the button.

Launch to space Titan II SLV | NOAA 16
Titan II SLV | NOAA 16

Agency: N/A

Status: Launch Successful

Launch date: Sept. 21, 2000, 10:22 a.m. UTC

Rocket: Titan II SLV

Launch pad: Space Launch Complex 4W

Location: Vandenberg SFB, CA, USA

...

Latest news about this satellite

There are no fresh news available about this satellite. Check back as we update our databases every day.


Newsletter sign-up

Weekly statistics, charts and insights to help you stay on top of the space industry.